DELTA 1 DEB

Satellite information

Favourite Embed

Satellite Type and Status

DEBRISIN ORBIT

Key statistics

Satellite DELTA 1 DEB at a glance.

Uptime

17877

Days in orbit

Revolutions

≈ 13.9

Per day

Orbit

SSO

Sun Synchronous Orbit

Inclination

101.9

Latest

Satellite identification and parameters

Extended collection of information and parameters for DELTA 1 DEB.

Object identification

Identified? True

Debris? True

Object name: DELTA 1 DEB

International designator: 1976-077BU

Object number (NORAD): 10824

Object ID (CCSDS): 10824

Country: UNITED STATES OF AMERICA (US)

Current information (Y/N): Y

RCS size: SMALL

Orbital parameters

Period: 103.295 minutes

Inclination: 101.8898 deg

SMA: 7292.552 km

Apoapsis: 947.986 km

Periapsis: 880.848 km

RAAN: 333.6884 deg

Eccentricy: 0.0046032

Argument of periapsis: 200.4809 deg

Mean anomaly: 286.6448 deg

Mean motion: 13.94066449 rev/day

Mean motion (dot): 0.00012127 rev/day2

B* drag term: 0.0091118 1/REarth

Two-line elements (TLE)

Creation date: July 8, 2025, 2:27 a.m.

Reference frame: TEME

Reference center: EARTH

Epoch: July 7, 2025, 9:58 p.m. UTC

TLE line 0: 0 DELTA 1 DEB

TLE line 1: 1 10824U 76077BU 25188.91582675 .00012127 00000-0 91118-2 0 9994

TLE line 2: 2 10824 101.8898 333.6884 0046032 200.4809 286.6448 13.94066449332636

Live tracking on map

Real-time ground track for satellite DELTA 1 DEB.

In-orbit conjunctions

A list of the most updated potential collisions computed for object DELTA 1 DEB.

Target Orbit TCA Probability of collision Miss distance Type
METEOR 2-12 DEB LEO 2025-02-01 12:27:39 0.0001196233 913.0 (m) DEBRIS
SL-14 R/B LEO 2024-06-22 04:57:00 0.0001105986 502.0 (m) ROCKET BODY

Associated space launch

Meteorological satellite using radiometric imaging

DELTA 1 DEB was lifted into orbit during the mission ‘Delta 2310 | NOAA 5’, on board a Delta 2310 space rocket.

The launch took place on July 29, 1976, 5:07 p.m. from Space Launch Complex 2W.

For more information about the launch, click the button.

Launch to space Delta 2310 | NOAA 5
Delta 2310 | NOAA 5

Agency: N/A

Status: Launch Successful

Launch date: July 29, 1976, 5:07 p.m. UTC

Rocket: Delta 2310

Launch pad: Space Launch Complex 2W

Location: Vandenberg SFB, CA, USA

...

Latest news about this satellite

There are no fresh news available about this satellite. Check back as we update our databases every day.


Newsletter sign-up

Weekly statistics, charts and insights to help you stay on top of the space industry.